Temp
-12 -12 -12 -12 -12 -12 -12 -12 -12 -12 -12 -12 -12 -12 -12 -12 -12 -13 -13 -13 -13 -13 -13 -13 -13 -14 -14 -14 -15 -15 -15 -15 -15 -15 -14 -14 -14 -14 -14 -14 -14 -14
-13 -12 -12 -13 -13 -13 -13 -12 -12 -12 -12 -12 -12 -12 -12 -12 -13 -13 -13 -13 -13 -13 -13 -13 -14 -14 -15 -15 -15 -15 -15 -15 -15 -15 -14 -14 -14 -14 -14 -14 -14 -14
-13 -12 -13 -13 -13 -13 -13 -12 -12 -12 -12 -12 -12 -12 -12 -13 -13 -13 -13 -13 -13 -13 -13 -14 -14 -15 -15 -15 -15 -15 -15 -15 -15 -15 -14 -14 -14 -14 -14 -14 -14 -14
-13 -12 -13 -13 -13 -13 -13 -12 -12 -12 -12 -13 -12 -12 -13 -13 -13 -13 -13 -13 -13 -13 -14 -15 -15 -15 -15 -15 -15 -15 -15 -15 -15 -15 -14 -14 -14 -14 -14 -14 -14 -14
-13 -13 -13 -13 -13 -13 -13 -13 -13 -13 -13 -13 -12 -13 -13 -13 -13 -13 -13 -13 -13 -14 -14 -15 -15 -15 -15 -15 -15 -15 -15 -15 -15 -15 -14 -14 -14 -14 -14 -14 -14 -14
-13 -13 -13 -13 -13 -13 -13 -13 -13 -13 -13 -13 -13 -13 -13 -13 -13 -13 -13 -13 -14 -14 -14 -15 -15 -15 -15 -15 -15 -15 -15 -15 -15 -14 -14 -14 -14 -14 -14 -14 -14 -14
-13 -13 -13 -13 -13 -13 -13 -13 -13 -13 -13 -13 -13 -13 -13 -13 -13 -13 -13 -14 -14 -14 -15 -15 -15 -15 -15 -15 -15 -15 -15 -15 -14 -14 -14 -14 -14 -14 -14 -14 -14 -14
-13 -13 -13 -13 -13 -13 -13 -13 -13 -13 -13 -13 -13 -13 -13 -13 -13 -14 -14 -14 -14 -14 -15 -15 -15 -15 -15 -15 -15 -15 -15 -15 -14 -14 -14 -14 -14 -14 -14 -14 -14 -14
-13 -13 -13 -13 -13 -13 -13 -13 -13 -13 -13 -13 -13 -13 -13 -13 -14 -14 -14 -14 -14 -14 -14 -14 -15 -15 -15 -15 -15 -15 -15 -14 -14 -14 -14 -14 -14 -14 -14 -14 -14 -14
-13 -13 -13 -13 -13 -13 -13 -13 -13 -13 -13 -13 -13 -13 -13 -14 -14 -14 -14 -14 -14 -14 -14 -14 -14 -15 -15 -15 -15 -15 -15 -14 -14 -14 -14 -14 -14 -14 -14 -14 -14 -14
-13 -13 -12 -13 -13 -13 -13 -13 -13 -13 -13 -13 -13 -13 -13 -14 -14 -14 -14 -14 -14 -14 -14 -14 -14 -15 -15 -15 -15 -15 -15 -14 -14 -14 -14 -14 -14 -14 -15 -15 -14 -14
-13 -12 -12 -13 -13 -13 -13 -13 -13 -13 -13 -13 -13 -13 -14 -14 -14 -14 -14 -14 -14 -14 -14 -14 -14 -14 -14 -15 -15 -15 -15 -14 -14 -14 -14 -14 -15 -15 -15 -15 -15 -15
-12 -12 -12 -13 -13 -13 -13 -13 -13 -13 -13 -13 -13 -13 -14 -14 -14 -14 -14 -14 -14 -14 -14 -14 -14 -14 -15 -15 -15 -15 -15 -14 -14 -14 -15 -15 -15 -15 -15 -15 -15 -15
-12 -12 -13 -13 -13 -13 -13 -13 -13 -13 -13 -13 -13 -14 -14 -14 -14 -14 -14 -14 -14 -14 -14 -14 -14 -15 -15 -15 -15 -15 -15 -14 -15 -15 -15 -15 -15 -15 -15 -15 -15 -15
-13 -13 -13 -13 -13 -13 -13 -13 -13 -13 -13 -13 -13 -14 -14 -14 -14 -14 -14 -14 -14 -14 -15 -15 -15 -15 -15 -15 -15 -15 -15 -15 -15 -15 -15 -15 -15 -15 -15 -15 -15 -15
-13 -13 -13 -13 -13 -13 -13 -13 -13 -13 -13 -13 -13 -13 -14 -14 -14 -14 -14 -14 -14 -15 -15 -15 -15 -15 -15 -15 -15 -15 -15 -15 -15 -15 -15 -15 -15 -15 -15 -15 -15 -15
-13 -13 -13 -13 -13 -13 -13 -13 -13 -13 -13 -13 -13 -13 -13 -14 -14 -14 -14 -14 -14 -14 -14 -15 -15 -15 -15 -15 -15 -15 -15 -15 -15 -15 -15 -15 -15 -15 -16 -16 -16 -16
-13 -13 -13 -13 -13 -13 -13 -13 -13 -13 -13 -13 -13 -13 -13 -14 -14 -14 -14 -14 -14 -14 -14 -14 -15 -15 -15 -15 -15 -15 -15 -15 -15 -15 -15 -15 -15 -16 -16 -16 -16 -16
-13 -13 -13 -13 -13 -13 -13 -13 -13 -13 -13 -13 -13 -13 -14 -14 -14 -14 -14 -14 -14 -14 -14 -14 -14 -15 -15 -15 -15 -15 -15 -15 -15 -15 -15 -15 -16 -16 -16 -16 -16 -16
-13 -13 -13 -13 -13 -13 -13 -13 -13 -13 -13 -13 -13 -14 -14 -14 -14 -14 -14 -14 -14 -14 -14 -14 -14 -14 -15 -15 -15 -15 -15 -15 -15 -15 -15 -15 -16 -16 -16 -16 -16 -16
-13 -13 -13 -13 -13 -13 -13 -13 -13 -13 -13 -13 -14 -14 -14 -14 -14 -14 -14 -14 -14 -14 -14 -14 -14 -14 -15 -15 -15 -15 -15 -15 -15 -15 -15 -15 -16 -16 -16 -16 -16 -16
-13 -13 -13 -13 -13 -13 -13 -13 -13 -13 -13 -14 -14 -14 -14 -14 -14 -14 -14 -14 -14 -14 -14 -14 -14 -15 -15 -15 -15 -15 -15 -15 -15 -15 -15 -15 -16 -16 -16 -16 -16 -16
-14 -14 -14 -13 -13 -13 -13 -13 -13 -13 -13 -14 -14 -14 -14 -14 -14 -14 -14 -14 -14 -14 -15 -14 -14 -15 -15 -15 -15 -15 -15 -15 -15 -15 -15 -15 -16 -16 -16 -16 -16 -16
-14 -14 -14 -14 -14 -14 -14 -14 -13 -13 -14 -14 -14 -14 -14 -14 -14 -14 -14 -14 -14 -14 -15 -15 -15 -15 -15 -14 -15 -15 -15 -15 -15 -15 -15 -16 -16 -16 -16 -16 -16 -16
-14 -14 -14 -14 -14 -14 -14 -14 -14 -14 -14 -14 -14 -14 -14 -14 -14 -14 -14 -14 -14 -15 -15 -15 -15 -15 -14 -15 -15 -15 -15 -15 -15 -15 -15 -16 -16 -16 -16 -16 -16 -16
-14 -14 -14 -14 -14 -14 -14 -14 -14 -14 -14 -14 -14 -14 -14 -14 -14 -14 -14 -14 -15 -15 -15 -15 -15 -15 -15 -15 -14 -14 -15 -15 -15 -15 -16 -16 -16 -16 -16 -16 -16 -16
Height
5795 5795 5795 5795 5795 5795 5795 5795 5795 5795 5796 5796 5797 5797 5797 5798 5799 5800 5800 5801 5801 5802 5803 5803 5804 5804 5805 5805 5806 5806 5807 5807 5807 5807 5807 5807 5806 5806 5805 5804 5803 5802
5793 5793 5793 5793 5794 5793 5793 5793 5793 5793 5793 5793 5794 5795 5795 5796 5797 5797 5798 5798 5799 5800 5800 5801 5802 5802 5803 5804 5804 5805 5805 5805 5806 5805 5805 5805 5804 5803 5803 5802 5801 5799
5792 5791 5791 5791 5791 5791 5791 5791 5791 5791 5791 5791 5792 5793 5793 5794 5795 5795 5796 5796 5797 5797 5798 5799 5800 5801 5802 5802 5803 5803 5804 5804 5804 5804 5803 5802 5802 5801 5800 5799 5798 5797
5790 5789 5789 5789 5789 5788 5789 5789 5789 5789 5789 5789 5790 5791 5792 5792 5793 5794 5794 5794 5795 5795 5796 5797 5798 5799 5800 5801 5802 5802 5802 5802 5802 5801 5801 5800 5800 5799 5798 5797 5796 5795
5787 5787 5787 5786 5786 5786 5786 5787 5787 5788 5788 5788 5788 5789 5790 5791 5791 5792 5792 5792 5793 5794 5795 5796 5797 5798 5799 5800 5800 5800 5800 5800 5800 5799 5799 5798 5797 5796 5796 5795 5794 5792
5785 5785 5785 5785 5785 5784 5785 5786 5786 5786 5786 5787 5787 5788 5789 5790 5790 5790 5790 5791 5792 5793 5794 5795 5796 5797 5798 5798 5799 5799 5798 5798 5798 5797 5796 5796 5795 5794 5793 5792 5791 5790
5784 5784 5784 5783 5783 5783 5784 5785 5785 5785 5785 5786 5787 5787 5788 5788 5788 5788 5789 5790 5791 5792 5793 5794 5795 5796 5797 5797 5797 5797 5796 5796 5796 5795 5794 5794 5793 5792 5791 5790 5789 5788
5782 5782 5782 5782 5782 5783 5783 5784 5784 5784 5784 5785 5786 5786 5786 5786 5786 5787 5788 5789 5790 5791 5792 5793 5794 5794 5795 5795 5795 5795 5794 5794 5793 5793 5792 5792 5791 5790 5789 5788 5787 5785
5781 5781 5781 5781 5781 5782 5783 5783 5783 5783 5783 5784 5784 5785 5785 5785 5786 5786 5787 5788 5789 5790 5791 5792 5792 5793 5793 5793 5793 5793 5792 5792 5791 5791 5790 5789 5789 5788 5787 5786 5784 5783
5779 5780 5780 5781 5781 5782 5782 5782 5782 5782 5782 5783 5783 5783 5784 5785 5785 5786 5787 5787 5788 5789 5790 5791 5791 5791 5791 5791 5791 5791 5790 5790 5789 5789 5788 5787 5786 5785 5784 5783 5782 5780
5779 5779 5780 5780 5780 5781 5781 5781 5781 5781 5781 5782 5782 5783 5784 5784 5785 5786 5786 5787 5788 5788 5789 5789 5789 5789 5789 5789 5789 5789 5788 5788 5787 5787 5786 5785 5784 5783 5782 5781 5779 5778
5778 5778 5779 5779 5779 5780 5780 5780 5780 5780 5781 5781 5781 5782 5783 5784 5785 5785 5786 5786 5787 5787 5787 5788 5788 5788 5788 5788 5787 5787 5786 5786 5785 5784 5783 5783 5782 5781 5779 5778 5776 5775
5777 5777 5778 5778 5778 5779 5779 5779 5779 5780 5780 5780 5781 5782 5783 5783 5784 5784 5785 5785 5785 5786 5786 5786 5786 5786 5786 5785 5785 5785 5784 5783 5782 5782 5781 5780 5779 5778 5777 5775 5774 5772
5776 5776 5776 5777 5777 5778 5778 5778 5778 5779 5779 5780 5780 5781 5781 5782 5782 5783 5783 5783 5783 5784 5784 5784 5784 5784 5783 5783 5782 5782 5781 5781 5780 5779 5778 5777 5776 5775 5774 5772 5771 5769
5774 5775 5775 5775 5776 5777 5777 5778 5778 5778 5778 5779 5779 5779 5780 5780 5781 5781 5781 5781 5781 5782 5782 5782 5782 5781 5781 5780 5780 5779 5779 5778 5777 5776 5775 5774 5773 5772 5771 5770 5768 5767
5773 5773 5774 5774 5775 5776 5776 5777 5777 5777 5777 5777 5778 5778 5778 5779 5779 5779 5779 5779 5779 5779 5779 5779 5779 5778 5778 5778 5777 5776 5775 5775 5774 5773 5772 5771 5770 5769 5768 5767 5765 5764
5772 5772 5773 5773 5774 5774 5775 5775 5776 5776 5776 5776 5776 5776 5777 5777 5778 5778 5777 5777 5777 5777 5777 5776 5776 5776 5775 5774 5774 5773 5772 5771 5770 5770 5769 5768 5767 5766 5765 5763 5762 5761
5770 5771 5771 5772 5773 5773 5774 5774 5774 5774 5774 5774 5774 5775 5775 5776 5776 5775 5775 5775 5774 5774 5774 5774 5773 5773 5772 5771 5771 5770 5769 5768 5767 5766 5765 5764 5763 5762 5761 5760 5759 5757
5768 5769 5770 5770 5771 5771 5772 5772 5772 5772 5772 5772 5773 5773 5773 5773 5773 5773 5772 5772 5772 5771 5771 5771 5770 5769 5769 5768 5767 5766 5765 5765 5764 5763 5762 5760 5759 5759 5758 5757 5755 5754
5766 5767 5768 5768 5769 5769 5770 5770 5770 5770 5770 5770 5770 5771 5771 5771 5770 5770 5769 5769 5768 5768 5768 5767 5767 5766 5765 5764 5764 5763 5762 5761 5760 5759 5758 5756 5756 5755 5754 5753 5752 5751
5763 5764 5765 5765 5766 5767 5767 5767 5767 5767 5767 5768 5768 5768 5767 5767 5767 5766 5766 5765 5765 5764 5764 5764 5763 5762 5762 5761 5760 5760 5759 5758 5757 5755 5753 5752 5752 5752 5751 5750 5749 5748
5760 5761 5761 5762 5763 5763 5764 5764 5764 5764 5764 5764 5764 5764 5764 5764 5763 5763 5762 5762 5761 5761 5760 5760 5759 5759 5759 5758 5757 5756 5755 5754 5753 5751 5749 5748 5749 5748 5748 5747 5746 5744
5757 5757 5758 5759 5760 5760 5761 5761 5761 5761 5761 5761 5761 5761 5760 5760 5759 5759 5758 5758 5758 5757 5757 5756 5756 5756 5755 5754 5754 5752 5751 5750 5748 5746 5745 5746 5746 5745 5744 5743 5742 5741
5754 5755 5755 5756 5757 5758 5758 5758 5758 5758 5758 5757 5757 5757 5757 5756 5756 5755 5754 5754 5754 5754 5753 5753 5753 5752 5752 5751 5750 5749 5747 5746 5745 5744 5743 5743 5742 5741 5741 5740 5739 5738
5751 5752 5753 5753 5754 5755 5755 5754 5754 5754 5754 5754 5754 5754 5753 5753 5752 5751 5751 5750 5750 5750 5750 5750 5749 5749 5748 5747 5746 5745 5743 5742 5742 5741 5741 5740 5739 5738 5737 5736 5735 5734
5748 5749 5749 5750 5751 5751 5751 5750 5750 5750 5750 5750 5750 5750 5749 5748 5748 5747 5747 5746 5746 5746 5746 5746 5746 5745 5744 5743 5742 5741 5740 5739 5738 5738 5737 5736 5736 5735 5734 5733 5732 5731
Wind_Speed
24 25 26 26 26 27 28 28 28 28 27 27 26 25 24 25 25 21 18 16 16 17 19 20 18 16 13 11 10 10 11 13 13 13 14 15 17 19 20 21 23 24
24 24 25 25 24 25 27 27 27 27 26 25 24 23 23 23 21 17 16 15 16 18 20 20 17 14 12 10 11 12 12 12 12 14 15 17 18 20 21 23 24 25
26 24 23 23 23 23 24 25 25 25 24 22 21 21 22 21 17 15 14 15 19 21 20 17 15 12 11 11 12 12 11 12 13 15 16 18 19 21 22 23 24 25
24 22 21 21 21 21 22 21 21 21 21 20 20 20 20 18 14 12 13 18 21 20 17 15 13 12 12 12 12 11 12 13 14 16 17 19 20 22 23 24 25 25
21 20 20 20 19 19 19 18 18 20 20 19 19 19 18 15 13 13 16 19 19 16 14 13 13 12 12 12 11 12 13 14 15 17 18 20 21 22 23 24 25 26
19 18 18 18 18 17 17 16 17 19 20 18 16 17 17 15 14 16 18 17 14 12 13 12 12 12 12 11 12 13 14 15 17 18 20 21 22 23 24 25 26 26
17 16 16 17 17 16 15 16 16 16 16 14 13 14 15 16 16 17 15 13 12 12 12 11 12 12 11 12 13 14 15 17 18 20 21 22 23 24 25 26 27 27
15 15 15 15 14 14 13 14 14 13 12 12 13 14 15 15 14 13 11 11 11 11 10 11 11 12 12 13 14 16 17 18 20 21 23 24 24 25 26 26 27 27
12 12 12 11 10 10 11 12 12 13 13 13 13 13 12 12 11 10 10 10 10 10 10 11 12 13 14 15 16 17 19 20 22 23 24 25 26 26 27 27 27 27
12 11 10 10 11 11 11 11 11 12 12 12 12 11 11 10 10 11 10 10 10 11 12 12 13 14 15 16 18 19 21 22 23 24 25 26 27 27 27 28 28 28
12 11 11 12 13 12 11 11 11 11 10 10 9 9 10 11 11 11 11 11 12 13 14 15 16 16 17 19 20 21 22 23 23 24 26 27 28 28 28 28 28 28
12 12 12 12 13 12 11 10 10 10 9 8 8 9 10 12 12 12 13 14 14 15 16 17 17 18 19 20 22 23 23 23 24 25 27 28 28 28 29 29 29 29
11 11 12 13 13 12 10 10 10 10 9 9 9 10 12 13 13 14 15 15 16 17 18 19 19 19 20 22 23 24 24 24 25 26 27 28 29 29 30 30 31 31
11 11 12 13 14 13 11 11 11 11 10 9 10 11 12 14 14 15 16 17 18 19 19 20 21 21 22 23 24 24 25 26 27 27 28 29 30 30 31 31 32 32
13 12 12 13 14 14 13 12 12 12 12 11 11 12 13 14 15 16 17 18 19 20 20 21 22 23 24 25 25 26 26 27 28 29 29 30 31 31 32 32 32 32
15 13 12 13 13 14 14 14 14 14 14 13 13 13 14 15 16 17 18 19 20 21 21 22 23 25 26 26 27 27 28 28 29 30 31 31 32 32 33 32 32 32
16 15 14 14 13 13 14 15 15 15 14 14 14 15 16 16 17 18 19 20 21 21 22 23 24 25 26 27 28 29 29 30 30 31 32 33 33 33 33 33 33 32
18 17 17 16 15 14 15 15 15 15 16 16 16 17 18 18 19 20 20 21 22 22 23 23 24 25 26 27 28 29 30 31 31 33 34 34 35 34 33 34 34 33
20 19 19 18 17 17 16 16 16 17 17 18 19 19 19 20 20 21 22 23 23 23 24 24 25 26 27 28 29 30 31 32 33 34 35 36 36 34 34 35 35 32
20 20 20 20 20 19 18 18 18 18 19 20 20 20 21 21 22 23 24 24 25 25 25 25 26 28 29 30 30 30 32 34 35 36 37 38 37 34 34 34 32 29
21 21 21 21 21 20 20 19 19 20 20 21 21 22 22 23 24 25 26 26 27 27 26 27 28 29 30 31 32 32 33 36 37 38 41 41 37 33 33 31 28 27
22 21 21 21 21 21 21 21 21 22 22 22 23 23 24 25 26 27 28 29 29 28 28 29 29 31 32 33 33 34 36 38 40 42 44 41 34 31 30 28 26 27
23 22 22 22 22 22 22 23 23 24 24 24 25 25 26 27 28 29 30 31 30 30 30 30 30 31 32 33 33 34 36 39 42 44 42 36 31 29 27 25 25 27
24 24 24 24 24 24 25 26 27 27 27 27 27 27 28 29 30 31 31 32 31 31 30 30 30 30 31 32 32 32 33 35 38 40 36 30 28 27 25 25 26 26
26 26 27 27 28 28 29 30 30 30 30 30 29 29 30 31 32 33 33 32 32 31 30 29 29 30 31 31 31 32 32 31 31 32 30 27 26 25 24 25 25 25
29 29 29 29 28 28 29 30 30 30 30 31 31 31 32 33 33 34 34 34 34 31 29 28 29 29 30 30 31 32 32 28 26 28 27 26 25 25 25 25 25 25
Wind_Direction
261 256 254 256 258 260 260 260 262 263 261 259 259 257 255 254 252 247 242 243 247 250 254 257 257 253 243 231 230 239 249 258 272 287 297 301 303 304 306 307 308 309
264 258 255 256 259 261 261 261 262 263 262 258 254 255 255 251 243 237 239 245 248 249 249 248 244 237 228 226 234 245 257 270 283 292 296 298 301 303 306 307 308 309
268 265 263 263 265 266 264 263 261 260 259 254 253 253 249 242 236 236 242 249 252 249 244 238 230 223 222 229 241 253 266 278 285 291 294 297 301 303 305 306 307 308
268 271 272 271 271 269 267 264 259 258 256 253 255 249 239 237 240 242 247 251 250 243 233 225 220 219 226 238 250 262 271 278 284 290 293 297 300 303 304 305 305 306
268 271 273 273 272 271 268 262 257 257 256 254 250 241 238 248 254 252 250 247 243 235 226 221 222 229 238 248 258 266 272 279 285 290 293 297 300 302 303 303 304 305
270 271 274 276 274 272 268 263 261 260 255 247 240 236 244 258 258 252 249 240 230 225 223 225 230 238 247 256 264 270 276 282 287 291 294 297 300 301 301 301 302 303
270 271 278 280 275 270 268 268 267 258 248 243 243 244 248 251 247 242 239 229 222 223 226 233 239 245 256 264 270 275 280 285 289 293 296 297 298 298 298 299 301 301
270 276 281 279 272 267 266 268 267 258 251 252 254 250 247 248 247 241 236 233 232 233 236 242 247 256 266 271 275 279 283 287 291 294 295 296 296 296 296 298 300 301
270 281 281 271 264 269 271 269 266 263 261 259 257 258 261 265 265 256 249 244 240 242 245 250 258 267 273 276 280 283 286 290 292 294 294 294 294 294 295 298 300 302
266 275 273 264 265 274 275 271 268 267 265 262 265 274 280 278 270 260 254 250 249 253 257 262 269 273 277 280 283 286 288 290 292 293 293 293 293 293 295 298 301 303
260 266 268 265 267 272 272 270 270 270 269 269 272 278 280 276 270 266 266 266 266 268 270 272 275 278 281 284 285 287 288 289 291 292 292 293 292 293 296 299 302 304
255 262 265 265 265 266 265 265 266 267 270 273 275 277 277 275 273 272 273 274 275 277 278 279 281 282 284 286 287 288 289 289 289 291 292 293 293 293 296 300 303 305
251 257 259 261 261 257 253 255 260 264 268 272 274 274 274 273 274 274 275 277 279 281 282 283 282 283 285 288 289 289 288 287 288 290 293 293 293 294 297 300 304 306
246 250 252 255 256 252 248 250 258 262 263 264 267 269 271 273 275 276 277 279 280 281 282 281 280 281 284 287 289 288 286 286 288 291 293 293 294 295 297 301 304 306
240 243 247 251 253 253 251 252 259 263 264 262 261 264 267 271 273 276 277 277 278 279 279 278 279 280 282 285 287 287 287 287 289 292 293 294 294 295 298 301 304 306
240 241 242 246 249 251 251 252 256 260 263 263 262 263 264 266 268 270 271 272 273 275 276 277 279 279 281 284 285 286 287 288 291 292 294 294 295 296 298 301 304 305
245 245 244 244 245 247 249 250 252 256 260 262 262 262 262 263 265 266 268 270 272 274 276 278 279 281 282 284 285 286 288 289 291 292 293 294 294 294 296 299 302 304
248 248 248 249 249 249 250 251 253 257 260 261 262 262 263 265 266 267 269 270 272 275 277 278 280 282 284 285 286 288 290 290 291 292 292 292 291 292 294 298 301 302
251 251 252 252 253 253 254 255 257 259 261 263 263 262 263 264 265 267 268 270 272 274 276 278 281 283 284 286 289 292 291 290 290 291 290 289 288 290 293 298 300 301
255 253 252 252 253 254 255 257 259 262 264 265 266 265 265 265 266 267 269 270 272 273 276 279 280 282 285 287 290 292 290 287 288 289 289 287 286 288 293 297 300 301
255 254 252 252 252 253 255 258 261 265 267 268 269 269 269 269 269 270 271 272 273 275 277 279 280 283 286 288 291 292 287 285 288 290 289 287 286 288 292 296 299 302
255 254 253 253 254 255 257 260 263 266 268 268 269 269 268 269 269 271 272 273 275 276 277 279 281 285 288 290 293 291 287 286 286 287 287 287 287 289 292 295 299 302
255 256 256 257 258 259 261 263 265 267 268 267 268 267 267 268 268 269 271 272 274 276 277 280 283 287 290 292 292 291 291 290 287 285 287 289 288 288 291 294 298 301
256 258 258 260 260 262 264 265 267 268 268 268 269 268 269 270 269 269 270 272 273 275 277 281 285 288 290 291 291 292 293 292 290 289 289 289 286 287 291 295 298 300
256 258 261 263 264 265 266 266 267 268 269 269 270 270 271 272 272 272 271 271 273 275 277 281 284 287 289 290 292 293 292 291 290 289 287 285 285 288 292 296 298 298
258 261 264 265 266 266 267 267 268 268 269 271 271 271 273 274 274 274 273 273 273 274 276 281 285 287 288 290 292 293 291 286 283 282 282 282 285 289 292 295 295 295